Weather History for Gillette, WY

Change the Weather History Date:

Wednesday, May 8, 2013

  Actual Average Record
Temperature  
Mean Temperature 53 °F 50 °F  
Max Temperature 71 °F 63 °F 86 °F (1985)
Min Temperature 35 °F 38 °F 22 °F (1929)
Degree Days  
Heating Degree Days 12 15  
Month to date heating degree days 146 127  
Since 1 July heating degree days 7108 7143  
Cooling Degree Days 0 0  
Month to date cooling degree days 0 0  
Year to date cooling degree days 0 0  
Growing Degree Days 2 (Base 50)    
Moisture  
Dew Point 35 °F    
Average Humidity 58    
Maximum Humidity 89    
Minimum Humidity 26    
Precipitation  
Precipitation 0.00 in 0.07 in 0.96 in (1970)
Month to date precipitation 0.00 0.53  
Year to date precipitation 3.12 3.74  
Sea Level Pressure  
Sea Level Pressure 29.99 in    
Wind  
Wind Speed 9 mph (NNW)    
Max Wind Speed 22 mph    
Max Gust Speed 28 mph    
Visibility 10 miles    
Events      
T = Trace of Precipitation, MM = Missing Value Source: NWS Daily Summary

Daily Weather History Graph

Daily Weather History Graph

Search for Another Location

Airport:

Trip Planner

Search our weather history database for the weather conditions in past years. The results will help you decide how hot, cold, wet, or windy it might be!

Date:

Astronomy

May. 08, 2013 Rise Set
Actual Time 5:43 AM MDT 8:14 PM MDT
Civil Twilight 5:10 AM MDT 8:47 PM MDT
Nautical Twilight 4:29 AM MDT 9:29 PM MDT
Astronomical Twilight 3:42 AM MDT 10:16 PM MDT
Moon 4:55 AM MDT (5/8) 7:13 PM MDT (5/8)
Length of Visible Light 15h 37m
Length of Day
14h 31m
Waning Crescent, 2% of the Moon is Illuminated
May 8
Waning Crescent
May 9
New
May 17
First Quarter
May 24
Full
May 31
Last Quarter

Hourly Weather History & Observations

Time (MDT) Temp. Windchill Dew Point Humidity Pressure Visibility Wind Dir Wind Speed Gust Speed Precip Events Conditions
12:53 AM 39.0 °F - 33.1 °F 79% 29.88 in 10.0 mi Calm Calm - N/A   Scattered Clouds
1:53 AM 37.9 °F 35.5 °F 33.1 °F 83% 29.89 in 10.0 mi SSW 3.5 mph - N/A   Partly Cloudy
2:53 AM 39.9 °F 37.8 °F 33.1 °F 77% 29.88 in 10.0 mi West 3.5 mph - N/A   Clear
3:53 AM 36.0 °F 31.1 °F 32.0 °F 86% 29.90 in 10.0 mi SSW 5.8 mph - N/A   Partly Cloudy
4:53 AM 35.1 °F 31.0 °F 30.9 °F 85% 29.91 in 10.0 mi West 4.6 mph - N/A   Clear
5:53 AM 36.0 °F 33.3 °F 32.0 °F 86% 29.92 in 10.0 mi West 3.5 mph - N/A   Clear
6:53 AM 46.9 °F - 37.0 °F 68% 29.94 in 10.0 mi North 4.6 mph - N/A   Clear
7:53 AM 55.0 °F - 37.0 °F 51% 29.96 in 10.0 mi NNE 3.5 mph - N/A   Clear
8:53 AM 60.1 °F - 34.0 °F 38% 30.00 in 10.0 mi North 11.5 mph - N/A   Clear
9:53 AM 62.1 °F - 35.1 °F 37% 29.99 in 10.0 mi North 12.7 mph - N/A   Clear
10:53 AM 64.0 °F - 35.1 °F 34% 30.01 in 10.0 mi NNW 12.7 mph 19.6 mph N/A   Clear
11:53 AM 68.0 °F - 35.1 °F 30% 30.01 in 10.0 mi North 12.7 mph 23.0 mph N/A   Clear
12:53 PM 68.0 °F - 33.1 °F 27% 30.02 in 10.0 mi NE 13.8 mph 23.0 mph N/A   Clear
1:53 PM 69.1 °F - 33.1 °F 26% 30.02 in 10.0 mi North 11.5 mph 26.5 mph N/A   Clear
2:53 PM 69.1 °F - 33.1 °F 26% 30.01 in 10.0 mi North 16.1 mph 24.2 mph N/A   Scattered Clouds
3:53 PM 69.1 °F - 35.1 °F 29% 30.02 in 10.0 mi North 18.4 mph 27.6 mph N/A   Mostly Cloudy
4:53 PM 66.9 °F - 37.0 °F 33% 30.03 in 10.0 mi NNE 15.0 mph 24.2 mph N/A   Partly Cloudy
5:53 PM 66.9 °F - 37.9 °F 34% 30.04 in 10.0 mi North 13.8 mph - N/A   Clear
6:53 PM 66.0 °F - 36.0 °F 33% 30.02 in 10.0 mi NE 16.1 mph - N/A   Overcast
7:53 PM 60.1 °F - 37.0 °F 42% 30.03 in 10.0 mi North 11.5 mph - N/A   Mostly Cloudy
8:53 PM 52.0 °F - 37.0 °F 57% 30.05 in 10.0 mi Calm Calm - N/A   Partly Cloudy
9:53 PM 42.1 °F 40.2 °F 35.1 °F 76% 30.08 in 10.0 mi SSW 3.5 mph - N/A   Partly Cloudy
10:53 PM 42.1 °F 39.2 °F 35.1 °F 76% 30.09 in 10.0 mi WSW 4.6 mph - N/A   Scattered Clouds
11:53 PM 39.9 °F 37.8 °F 35.1 °F 83% 30.08 in 10.0 mi SSW 3.5 mph - N/A   Partly Cloudy